Denver, CO

4:25 AM MDT on June 25, 2017 (GMT -0600)
Denver International

Weather History for KDEN - July, 2013

Change the Weather History Date:

Tuesday, July 30, 2013

  Actual Average Record
Temperature  
Mean Temperature 72 °F 75 °F  
Max Temperature 88 °F 90 °F 101 °F (2005)
Min Temperature 56 °F 60 °F 43 °F (1971)
Degree Days  
Heating Degree Days 0 0  
Month to date heating degree days 0 1  
Since 1 June heating degree days 29 63  
Since 1 July heating degree days 0 1  
Cooling Degree Days 7 10  
Month to date cooling degree days 284 279  
Year to date cooling degree days 547 434  
Since 1 June cooling degree days 505 412  
Growing Degree Days 22 (Base 50)    
Moisture  
Dew Point 51 °F    
Average Humidity 51    
Maximum Humidity 80    
Minimum Humidity 21    
Precipitation  
Precipitation 0.02 in 0.08 in 2.71 in (1997)
Month to date precipitation 1.98 2.08  
Year to date precipitation 7.97 9.59  
Snow  
Snow 0.00 in - - ()
Month to date snowfall 0  
Since 1 June snowfall 0  
Since 1 July snowfall 0  
Snow Depth 0.00 in    
Sea Level Pressure  
Sea Level Pressure 30.07 in    
Wind  
Wind Speed 8 mph (SSW)    
Max Wind Speed 29 mph    
Max Gust Speed 33 mph    
Visibility 10 miles    
Events Rain , Thunderstorm    
T = Trace of Precipitation, MM = Missing Value Source: NWS Daily Summary

Daily Weather History Graph

Daily Weather History Graph

Search for Another Location

Airport or City:

Trip Planner

Search our weather history database for the weather conditions in past years. The results will help you decide how hot, cold, wet, or windy it might be!

Date:

Astronomy

Jul. 30, 2013 Rise Set
Actual Time 5:55 AM MDT 8:13 PM MDT
Civil Twilight 5:25 AM MDT 8:44 PM MDT
Nautical Twilight 4:47 AM MDT 9:21 PM MDT
Astronomical Twilight 4:06 AM MDT 10:02 PM MDT
Moon 12:15 AM MDT (7/30) 2:36 PM MDT (7/30)
Length of Visible Light 15h 18m
Length of Day
14h 17m
Last Quarter, 40% of the Moon is Illuminated
Jul 30
Last Quarter
Aug 6
New
Aug 14
First Quarter
Aug 20
Full
Aug 28
Last Quarter

Hourly Weather History & Observations

Time (MDT) Temp. Dew Point Humidity Pressure Visibility Wind Dir Wind Speed Gust Speed Precip Events Conditions
12:53 AM 64.0 °F 52.0 °F 65% 30.05 in 10.0 mi SSW 11.5 mph - N/A   Mostly Cloudy
1:53 AM 62.1 °F 53.1 °F 72% 30.04 in 10.0 mi SW 10.4 mph - N/A   Mostly Cloudy
2:53 AM 61.0 °F 53.1 °F 75% 30.03 in 10.0 mi SSW 11.5 mph - N/A   Mostly Cloudy
3:53 AM 60.1 °F 52.0 °F 75% 30.04 in 10.0 mi Calm Calm - N/A   Mostly Cloudy
4:53 AM 59.0 °F 53.1 °F 81% 30.05 in 10.0 mi WSW 6.9 mph - N/A   Mostly Cloudy
5:53 AM 57.0 °F 52.0 °F 83% 30.06 in 10.0 mi SW 4.6 mph - N/A   Scattered Clouds
6:53 AM 61.0 °F 52.0 °F 72% 30.06 in 6.0 mi SW 8.1 mph - N/A   Haze
7:53 AM 64.9 °F 52.0 °F 63% 30.06 in 9.0 mi SW 8.1 mph - N/A   Scattered Clouds
8:53 AM 71.1 °F 51.1 °F 49% 30.06 in 10.0 mi WSW 6.9 mph - N/A   Partly Cloudy
9:53 AM 73.0 °F 51.1 °F 46% 30.06 in 10.0 mi WNW 4.6 mph - N/A   Partly Cloudy
10:53 AM 77.0 °F 51.1 °F 40% 30.06 in 10.0 mi NW 5.8 mph - N/A   Partly Cloudy
11:53 AM 80.1 °F 50.0 °F 35% 30.05 in 10.0 mi NNE 9.2 mph - N/A   Partly Cloudy
12:53 PM 82.9 °F 48.0 °F 29% 30.02 in 10.0 mi Variable 6.9 mph - N/A   Scattered Clouds
1:53 PM 84.0 °F 46.0 °F 26% 30.02 in 10.0 mi NE 8.1 mph 16.1 mph N/A   Scattered Clouds
2:53 PM 86.0 °F 45.0 °F 24% 30.01 in 10.0 mi North 9.2 mph - N/A   Scattered Clouds
3:53 PM 86.0 °F 45.0 °F 24% 29.99 in 10.0 mi East 8.1 mph - N/A   Scattered Clouds
4:53 PM 84.9 °F 45.0 °F 25% 29.99 in 10.0 mi East 5.8 mph - N/A   Scattered Clouds
5:53 PM 86.0 °F 43.0 °F 22% 29.99 in 10.0 mi Variable 4.6 mph - N/A   Scattered Clouds
6:34 PM 77.0 °F 48.2 °F 36% 30.23 in 10.0 mi NNE 16.1 mph 28.8 mph N/A   Mostly Cloudy
6:53 PM 75.0 °F 50.0 °F 41% 30.03 in 10.0 mi NE 18.4 mph 28.8 mph N/A Thunderstorm Thunderstorm
7:11 PM 73.4 °F 50.0 °F 44% 30.25 in 10.0 mi NE 12.7 mph 26.5 mph 0.00 in Rain , Thunderstorm Light Thunderstorms and Rain
7:45 PM 66.2 °F 57.2 °F 73% 30.29 in 10.0 mi SSW 6.9 mph - 0.02 in Rain Light Rain
7:48 PM 66.2 °F 57.2 °F 73% 30.28 in 10.0 mi South 8.1 mph - 0.02 in Rain Light Rain
7:53 PM 68.0 °F 57.0 °F 68% 30.07 in 10.0 mi SE 9.2 mph - 0.02 in Rain Light Rain
8:53 PM 64.9 °F 57.0 °F 75% 30.06 in 10.0 mi SSE 9.2 mph - 0.00 in   Mostly Cloudy
9:53 PM 66.0 °F 54.0 °F 65% 30.07 in 10.0 mi South 11.5 mph - N/A   Mostly Cloudy
10:53 PM 66.0 °F 54.0 °F 65% 30.07 in 10.0 mi WSW 8.1 mph - N/A   Mostly Cloudy
11:53 PM 68.0 °F 51.1 °F 55% 30.05 in 10.0 mi SW 10.4 mph - N/A   Mostly Cloudy